,,PA_Meas_PMT16A,,PR_Meas_QMR101_102,,RH_Meas_QMH101,,SR_Meas_QMS101,,TA_Meas_QMH101,,GenWind,,GenWind,
time,status,PA,status,PR,status,RH,status,SR,status,TA,status,DirAvg,status,SpdAvg,
2012-07-25, 00:00:04,VALID,919.411,VALID,0,VALID,93.7451,VALID,0,VALID,16.1593,VALID,58,VALID,0,
2012-07-25, 00:01:04,VALID,919.402,VALID,0,VALID,93.9281,VALID,0,VALID,16.1593,VALID,59,VALID,0,
2012-07-25, 00:02:04,VALID,919.38,VALID,0,VALID,94.0425,VALID,0,VALID,16.1593,VALID,59,VALID,0,
2012-07-25, 00:03:04,VALID,919.398,VALID,0,VALID,94.0882,VALID,0,VALID,16.1398,VALID,59,VALID,0,
2012-07-25, 00:04:04,VALID,919.411,VALID,0,VALID,94.1721,VALID,0,VALID,16.1203,VALID,59,VALID,0,
2012-07-25, 00:05:04,VALID,919.39,VALID,0,VALID,94.3398,VALID,0,VALID,16.1203,VALID,103,VALID,0,
2012-07-25, 00:06:04,VALID,919.37,VALID,0,VALID,94.4313,VALID,0,VALID,16.1787,VALID,103,VALID,0,
2012-07-25, 00:07:04,VALID,919.361,VALID,0,VALID,94.2712,VALID,0,VALID,16.1982,VALID,91,VALID,0,
2012-07-25, 00:08:04,VALID,919.347,VALID,0,VALID,94.0577,VALID,0,VALID,16.1605,VALID,92,VALID,0,
2012-07-25, 00:09:04,VALID,919.321,VALID,0,VALID,94.5075,VALID,0,VALID,16.1982,VALID,78,VALID,0,
2012-07-25, 00:10:04,VALID,919.329,VALID,0,VALID,94.1339,VALID,0,VALID,16.2567,VALID,68,VALID,0,
2012-07-25, 00:11:04,VALID,919.352,VALID,0,VALID,94.1721,VALID,0,VALID,16.3151,VALID,68,VALID,0,
2012-07-25, 00:12:04,VALID,919.306,VALID,0,VALID,93.6155,VALID,0,VALID,16.3541,VALID,68,VALID,0,
2012-07-25, 00:13:04,VALID,919.327,VALID,0,VALID,93.1886,VALID,0,VALID,16.2957,VALID,69,VALID,0,
2012-07-25, 00:14:04,VALID,919.335,VALID,0,VALID,93.3716,VALID,0,VALID,16.2567,VALID,68,VALID,0,
2012-07-25, 00:15:04,VALID,919.316,VALID,0,VALID,93.4631,VALID,0,VALID,16.2177,VALID,68,VALID,0,
2012-07-25, 00:16:04,VALID,919.372,VALID,0,VALID,93.6079,VALID,0,VALID,16.1593,VALID,68,VALID,0,
2012-07-25, 00:17:04,VALID,919.312,VALID,0,VALID,93.9357,VALID,0,VALID,16.1398,VALID,69,VALID,0,
2012-07-25, 00:18:04,VALID,919.3,VALID,0,VALID,93.9967,VALID,0,VALID,16.0411,VALID,68,VALID,0,
2012-07-25, 00:19:04,VALID,919.304,VALID,0,VALID,94.6218,VALID,0,VALID,16.1008,VALID,69,VALID,0,
2012-07-25, 00:20:04,VALID,919.28,VALID,0,VALID,94.8048,VALID,0,VALID,16.1203,VALID,68,VALID,0,
2012-07-25, 00:21:04,VALID,919.251,VALID,0,VALID,94.8353,VALID,0,VALID,16.1593,VALID,69,VALID,0,
2012-07-25, 00:22:04,VALID,919.251,VALID,0,VALID,94.7362,VALID,0,VALID,16.1982,VALID,69,VALID,0,
2012-07-25, 00:23:04,VALID,919.281,VALID,0,VALID,94.5913,VALID,0,VALID,16.2762,VALID,68,VALID,0,
2012-07-25, 00:24:04,VALID,919.286,VALID,0,VALID,94.1492,VALID,0,VALID,16.3541,VALID,69,VALID,0,
2012-07-25, 00:25:04,VALID,919.27,VALID,0,VALID,93.6232,VALID,0,VALID,16.3541,VALID,68,VALID,0,
2012-07-25, 00:26:04,VALID,919.279,VALID,0,VALID,93.8595,VALID,0,VALID,16.4126,VALID,69,VALID,0,
2012-07-25, 00:27:04,VALID,919.265,VALID,0,VALID,93.8747,VALID,0,VALID,16.3931,VALID,69,VALID,0,
2012-07-25, 00:28:04,VALID,919.259,VALID,0,VALID,93.7604,VALID,0,VALID,16.3529,VALID,69,VALID,0,
2012-07-25, 00:29:04,VALID,919.281,VALID,0,VALID,93.1276,VALID,0,VALID,16.2372,VALID,68,VALID,0,
2012-07-25, 00:30:04,VALID,919.241,VALID,0,VALID,93.3487,VALID,0,VALID,16.158,VALID,68,VALID,0,
2012-07-25, 00:31:04,VALID,919.229,VALID,0,VALID,93.6842,VALID,0,VALID,16.1386,VALID,68,VALID,0,
2012-07-25, 00:32:04,VALID,919.212,VALID,0,VALID,94.0806,VALID,0,VALID,16.1398,VALID,68,VALID,0,
2012-07-25, 00:33:04,VALID,919.192,VALID,0.2,VALID,94.1873,VALID,0,VALID,16.1203,VALID,69,VALID,0,
2012-07-25, 00:34:04,VALID,919.2,VALID,0,VALID,93.89,VALID,0,VALID,16.0424,VALID,69,VALID,0,
2012-07-25, 00:35:04,VALID,919.137,VALID,0,VALID,94.0958,VALID,0,VALID,16.0034,VALID,68,VALID,0,
2012-07-25, 00:36:04,VALID,919.126,VALID,0,VALID,94.8124,VALID,0,VALID,16.0229,VALID,50,VALID,0,
2012-07-25, 00:37:04,VALID,919.104,VALID,0,VALID,95.0411,VALID,0.107441,VALID,16.0801,VALID,44,VALID,0,
2012-07-25, 00:38:04,VALID,919.092,VALID,0,VALID,94.7286,VALID,0,VALID,16.1398,VALID,46,VALID,0,
2012-07-25, 00:39:04,VALID,919.076,VALID,0,VALID,94.7438,VALID,0,VALID,16.1593,VALID,46,VALID,0,
2012-07-25, 00:40:04,VALID,919.07,VALID,0,VALID,94.5151,VALID,0,VALID,16.1593,VALID,46,VALID,0,
2012-07-25, 00:41:04,VALID,919.027,VALID,0,VALID,94.2712,VALID,0,VALID,16.1203,VALID,46,VALID,0,
2012-07-25, 00:42:04,VALID,919.014,VALID,0,VALID,94.3093,VALID,0,VALID,16.1191,VALID,46,VALID,0,
2012-07-25, 00:43:04,VALID,919.002,VALID,0,VALID,94.1644,VALID,0,VALID,16.1008,VALID,46,VALID,0,
2012-07-25, 00:44:04,VALID,918.965,VALID,0,VALID,94.6828,VALID,0,VALID,16.1982,VALID,74,VALID,0,
2012-07-25, 00:45:04,VALID,918.986,VALID,0,VALID,94.6371,VALID,0,VALID,16.3346,VALID,87,VALID,0,
2012-07-25, 00:46:04,VALID,918.956,VALID,0,VALID,94.0958,VALID,0,VALID,16.4126,VALID,122,VALID,0,
2012-07-25, 00:47:04,VALID,918.984,VALID,0,VALID,93.6308,VALID,0,VALID,16.3736,VALID,130,VALID,0,
2012-07-25, 00:48:04,VALID,918.984,VALID,0,VALID,93.6308,VALID,0,VALID,16.3151,VALID,130,VALID,0,
2012-07-25, 00:49:04,VALID,918.976,VALID,0,VALID,93.8747,VALID,0,VALID,16.2957,VALID,120,VALID,0,
2012-07-25, 00:50:04,VALID,918.996,VALID,0,VALID,94.2635,VALID,0,VALID,16.2762,VALID,112,VALID,0,
2012-07-25, 00:51:04,VALID,918.955,VALID,0,VALID,93.5317,VALID,0,VALID,16.2762,VALID,101,VALID,0,
2012-07-25, 00:52:04,VALID,918.972,VALID,0,VALID,93.4021,VALID,0,VALID,16.1593,VALID,73,VALID,0,
2012-07-25, 00:53:04,VALID,918.969,VALID,0,VALID,93.7833,VALID,0,VALID,16.1386,VALID,64,VALID,0,
2012-07-25, 00:54:04,VALID,918.926,VALID,0,VALID,93.9129,VALID,0.107441,VALID,16.1398,VALID,64,VALID,0,
2012-07-25, 00:55:04,VALID,918.93,VALID,0,VALID,93.9281,VALID,0,VALID,16.0606,VALID,64,VALID,0,
2012-07-25, 00:56:04,VALID,918.923,VALID,0,VALID,93.8747,VALID,0,VALID,16.0229,VALID,64,VALID,0,
2012-07-25, 00:57:04,VALID,918.918,VALID,0,VALID,94.0501,VALID,0,VALID,16.0034,VALID,64,VALID,0,
2012-07-25, 00:58:04,VALID,918.896,VALID,0,VALID,94.1873,VALID,0,VALID,16.0034,VALID,64,VALID,0,
2012-07-25, 00:59:04,VALID,918.933,VALID,0,VALID,94.3398,VALID,0,VALID,16.0034,VALID,64,VALID,0,
2012-07-25, 01:00:04,VALID,918.899,VALID,0,VALID,94.5837,VALID,0.107441,VALID,16.0424,VALID,137,VALID,0,
2012-07-25, 01:01:04,VALID,918.902,VALID,0,VALID,94.5532,VALID,0,VALID,16.0424,VALID,137,VALID,0,
2012-07-25, 01:02:04,VALID,918.905,VALID,0,VALID,94.6828,VALID,0,VALID,16.0034,VALID,137,VALID,0,
2012-07-25, 01:03:04,VALID,918.851,VALID,0,VALID,94.8124,VALID,0,VALID,15.9839,VALID,131,VALID,0,
2012-07-25, 01:04:04,VALID,918.83,VALID,0,VALID,95.0488,VALID,0,VALID,15.9644,VALID,132,VALID,0,
2012-07-25, 01:05:04,VALID,918.807,VALID,0,VALID,95.2241,VALID,0,VALID,16.0229,VALID,132,VALID,0,
2012-07-25, 01:06:04,VALID,918.785,VALID,0,VALID,95.186,VALID,0,VALID,16.0229,VALID,132,VALID,0,
2012-07-25, 01:07:04,VALID,918.768,VALID,0,VALID,95.2393,VALID,0,VALID,16.0618,VALID,132,VALID,0,
2012-07-25, 01:08:04,VALID,918.752,VALID,0,VALID,95.2317,VALID,0,VALID,16.0618,VALID,120,VALID,0,
2012-07-25, 01:09:04,VALID,918.742,VALID,0,VALID,95.1783,VALID,0,VALID,16.1398,VALID,111,VALID,0,
2012-07-25, 01:10:04,VALID,918.726,VALID,0,VALID,94.881,VALID,0,VALID,16.197,VALID,98,VALID,0,
2012-07-25, 01:11:04,VALID,918.708,VALID,0,VALID,94.3855,VALID,0,VALID,16.2762,VALID,99,VALID,0,
2012-07-25, 01:12:04,VALID,918.706,VALID,0,VALID,94.0196,VALID,0,VALID,16.2762,VALID,128,VALID,0,
2012-07-25, 01:13:04,VALID,918.711,VALID,0,VALID,93.7909,VALID,0,VALID,16.3151,VALID,131,VALID,0,
2012-07-25, 01:14:04,VALID,918.719,VALID,0,VALID,93.3868,VALID,0,VALID,16.3541,VALID,117,VALID,0,
2012-07-25, 01:15:04,VALID,918.731,VALID,0,VALID,93.0514,VALID,0,VALID,16.3541,VALID,104,VALID,0,
2012-07-25, 01:16:04,VALID,918.712,VALID,0,VALID,92.6474,VALID,0,VALID,16.3931,VALID,104,VALID,0,
2012-07-25, 01:17:04,VALID,918.696,VALID,0,VALID,92.2891,VALID,0,VALID,16.4126,VALID,132,VALID,0,
2012-07-25, 01:18:04,VALID,918.686,VALID,0,VALID,92.0604,VALID,0,VALID,16.4321,VALID,138,VALID,0,
2012-07-25, 01:19:04,VALID,918.673,VALID,0,VALID,92.3043,VALID,0,VALID,16.4113,VALID,155,VALID,0,
2012-07-25, 01:20:04,VALID,918.645,VALID,0,VALID,92.777,VALID,0.107441,VALID,16.3541,VALID,157,VALID,0,
2012-07-25, 01:21:04,VALID,918.638,VALID,0,VALID,93.1963,VALID,0,VALID,16.2749,VALID,157,VALID,0,
2012-07-25, 01:22:04,VALID,918.634,VALID,0,VALID,93.4707,VALID,0,VALID,16.2372,VALID,157,VALID,0,
2012-07-25, 01:23:04,VALID,918.631,VALID,0,VALID,93.5851,VALID,0,VALID,16.1787,VALID,113,VALID,0,
2012-07-25, 01:24:04,VALID,918.629,VALID,0,VALID,93.6155,VALID,0,VALID,16.1787,VALID,114,VALID,0,
2012-07-25, 01:25:04,VALID,918.625,VALID,0,VALID,93.8061,VALID,0,VALID,16.1398,VALID,113,VALID,0,
2012-07-25, 01:26:04,VALID,918.631,VALID,0,VALID,94.073,VALID,0,VALID,16.1605,VALID,114,VALID,0,
2012-07-25, 01:27:04,VALID,918.594,VALID,0,VALID,94.1339,VALID,0,VALID,16.1398,VALID,114,VALID,0,
2012-07-25, 01:28:04,VALID,918.608,VALID,0,VALID,94.2026,VALID,0.107441,VALID,16.1191,VALID,113,VALID,0,
2012-07-25, 01:29:04,VALID,918.573,VALID,0,VALID,94.3321,VALID,0.107441,VALID,16.1593,VALID,113,VALID,0,
2012-07-25, 01:30:04,VALID,918.572,VALID,0,VALID,94.1568,VALID,0,VALID,16.0996,VALID,114,VALID,0,
2012-07-25, 01:31:04,VALID,918.574,VALID,0,VALID,94.1873,VALID,0.107441,VALID,16.0801,VALID,113,VALID,0,
2012-07-25, 01:32:04,VALID,918.576,VALID,0,VALID,94.4389,VALID,0,VALID,16.1008,VALID,114,VALID,0,
2012-07-25, 01:33:04,VALID,918.59,VALID,0,VALID,94.4236,VALID,0,VALID,16.1398,VALID,124,VALID,0,
2012-07-25, 01:34:04,VALID,918.599,VALID,0,VALID,94.3398,VALID,0,VALID,16.1593,VALID,143,VALID,0,
2012-07-25, 01:35:04,VALID,918.645,VALID,0,VALID,94.2712,VALID,0,VALID,16.1787,VALID,143,VALID,0,
2012-07-25, 01:36:04,VALID,918.641,VALID,0,VALID,94.233,VALID,0,VALID,16.1982,VALID,143,VALID,0,
2012-07-25, 01:37:04,VALID,918.611,VALID,0,VALID,94.0806,VALID,0,VALID,16.2372,VALID,138,VALID,0,
2012-07-25, 01:38:04,VALID,918.648,VALID,0,VALID,93.9205,VALID,0,VALID,16.2567,VALID,133,VALID,0,
2012-07-25, 01:39:04,VALID,918.623,VALID,0,VALID,93.7375,VALID,0.107441,VALID,16.2762,VALID,133,VALID,0,
2012-07-25, 01:40:04,VALID,918.648,VALID,0,VALID,93.5546,VALID,0,VALID,16.2957,VALID,133,VALID,0,
2012-07-25, 01:41:04,VALID,918.634,VALID,0,VALID,93.4783,VALID,0,VALID,16.2957,VALID,133,VALID,0,
2012-07-25, 01:42:04,VALID,918.617,VALID,0,VALID,93.5012,VALID,0,VALID,16.2957,VALID,133,VALID,0,
2012-07-25, 01:43:04,VALID,918.619,VALID,0,VALID,93.5546,VALID,0,VALID,16.2762,VALID,133,VALID,0,
2012-07-25, 01:44:04,VALID,918.602,VALID,0,VALID,93.5622,VALID,0,VALID,16.2567,VALID,133,VALID,0,
2012-07-25, 01:45:04,VALID,918.587,VALID,0,VALID,93.5698,VALID,0,VALID,16.2177,VALID,133,VALID,0,
2012-07-25, 01:46:04,VALID,918.585,VALID,0,VALID,93.6537,VALID,0,VALID,16.1982,VALID,133,VALID,0,
2012-07-25, 01:47:04,VALID,918.56,VALID,0,VALID,93.707,VALID,0,VALID,16.2384,VALID,133,VALID,0,
2012-07-25, 01:48:04,VALID,918.562,VALID,0,VALID,93.6765,VALID,0,VALID,16.2372,VALID,133,VALID,0,
2012-07-25, 01:49:04,VALID,918.538,VALID,0,VALID,93.6613,VALID,0,VALID,16.2762,VALID,133,VALID,0,
2012-07-25, 01:50:04,VALID,918.542,VALID,0,VALID,93.6232,VALID,0.107441,VALID,16.2762,VALID,133,VALID,0,
2012-07-25, 01:51:04,VALID,918.535,VALID,0,VALID,93.5393,VALID,0,VALID,16.2957,VALID,133,VALID,0,
2012-07-25, 01:52:04,VALID,918.513,VALID,0,VALID,93.5546,VALID,0,VALID,16.2762,VALID,133,VALID,0,
2012-07-25, 01:53:04,VALID,918.5,VALID,0,VALID,93.6308,VALID,0,VALID,16.2762,VALID,136,VALID,0,
2012-07-25, 01:54:04,VALID,918.487,VALID,0,VALID,93.7909,VALID,0,VALID,16.2762,VALID,136,VALID,0,
2012-07-25, 01:55:04,VALID,918.473,VALID,0,VALID,93.8976,VALID,0,VALID,16.236,VALID,136,VALID,0,
2012-07-25, 01:56:04,VALID,918.487,VALID,0,VALID,93.9815,VALID,0,VALID,16.2165,VALID,136,VALID,0,
2012-07-25, 01:57:04,VALID,918.462,VALID,0,VALID,94.012,VALID,0,VALID,16.2372,VALID,136,VALID,0,
2012-07-25, 01:58:04,VALID,918.455,VALID,0,VALID,93.9738,VALID,0.107441,VALID,16.2567,VALID,136,VALID,0,
2012-07-25, 01:59:04,VALID,918.43,VALID,0,VALID,93.9052,VALID,0,VALID,16.2957,VALID,136,VALID,0,
2012-07-25, 02:00:04,VALID,918.425,VALID,0,VALID,93.6689,VALID,0.107441,VALID,16.3541,VALID,136,VALID,0,
2012-07-25, 02:01:04,VALID,918.38,VALID,0,VALID,93.2344,VALID,0,VALID,16.4126,VALID,136,VALID,0,
2012-07-25, 02:02:04,VALID,918.381,VALID,0,VALID,92.6169,VALID,0,VALID,16.471,VALID,136,VALID,0,
2012-07-25, 02:03:04,VALID,918.363,VALID,0,VALID,92.129,VALID,0,VALID,16.51,VALID,136,VALID,0,
2012-07-25, 02:04:04,VALID,918.371,VALID,0,VALID,91.9003,VALID,0,VALID,16.51,VALID,136,VALID,0,
2012-07-25, 02:05:04,VALID,918.323,VALID,0,VALID,91.7935,VALID,0,VALID,16.4698,VALID,135,VALID,0,
2012-07-25, 02:06:04,VALID,918.328,VALID,0,VALID,91.9613,VALID,0.107441,VALID,16.4126,VALID,136,VALID,0,
2012-07-25, 02:07:04,VALID,918.313,VALID,0,VALID,92.1519,VALID,0,VALID,16.3931,VALID,135,VALID,0,
2012-07-25, 02:08:04,VALID,918.318,VALID,0,VALID,92.2433,VALID,0,VALID,16.3736,VALID,136,VALID,0,
2012-07-25, 02:09:04,VALID,918.269,VALID,0,VALID,92.411,VALID,0,VALID,16.3724,VALID,135,VALID,0,
2012-07-25, 02:10:04,VALID,918.268,VALID,0,VALID,92.4873,VALID,0,VALID,16.3918,VALID,135,VALID,0,
2012-07-25, 02:11:04,VALID,918.217,VALID,0,VALID,92.594,VALID,0,VALID,16.3931,VALID,135,VALID,0,
2012-07-25, 02:12:04,VALID,918.237,VALID,0,VALID,92.7998,VALID,0,VALID,16.3931,VALID,150,VALID,0,
2012-07-25, 02:13:04,VALID,918.243,VALID,0,VALID,92.9371,VALID,0,VALID,16.3529,VALID,140,VALID,0,
2012-07-25, 02:14:04,VALID,918.219,VALID,0,VALID,93.1048,VALID,0.107441,VALID,16.3346,VALID,139,VALID,0,
2012-07-25, 02:15:04,VALID,918.223,VALID,0,VALID,93.2954,VALID,0,VALID,16.2762,VALID,150,VALID,0,
2012-07-25, 02:16:04,VALID,918.202,VALID,0,VALID,93.5469,VALID,0,VALID,16.2567,VALID,149,VALID,0,
2012-07-25, 02:17:04,VALID,918.203,VALID,0,VALID,93.646,VALID,0.107441,VALID,16.2762,VALID,137,VALID,0,
2012-07-25, 02:18:04,VALID,918.18,VALID,0,VALID,93.5698,VALID,0,VALID,16.2957,VALID,137,VALID,0,
2012-07-25, 02:19:04,VALID,918.142,VALID,0,VALID,93.364,VALID,0,VALID,16.3541,VALID,137,VALID,0,
2012-07-25, 02:20:04,VALID,918.149,VALID,0,VALID,93.0819,VALID,0,VALID,16.3931,VALID,137,VALID,0,
2012-07-25, 02:21:04,VALID,918.134,VALID,0,VALID,92.8532,VALID,0,VALID,16.4126,VALID,137,VALID,0,
2012-07-25, 02:22:04,VALID,918.133,VALID,0,VALID,92.777,VALID,0,VALID,16.4321,VALID,137,VALID,0,
2012-07-25, 02:23:04,VALID,918.115,VALID,0,VALID,92.7084,VALID,0,VALID,16.4126,VALID,137,VALID,0,
2012-07-25, 02:24:04,VALID,918.115,VALID,0,VALID,92.2052,VALID,0.107441,VALID,16.3736,VALID,137,VALID,0,
2012-07-25, 02:25:04,VALID,918.121,VALID,0,VALID,92.2738,VALID,0,VALID,16.2762,VALID,137,VALID,0,
2012-07-25, 02:26:04,VALID,918.128,VALID,0,VALID,93.0362,VALID,0,VALID,16.2372,VALID,137,VALID,0,
2012-07-25, 02:27:04,VALID,918.13,VALID,0,VALID,93.3182,VALID,0,VALID,16.2567,VALID,137,VALID,0,
2012-07-25, 02:28:04,VALID,918.126,VALID,0,VALID,93.1353,VALID,0,VALID,16.3346,VALID,137,VALID,0,
2012-07-25, 02:29:04,VALID,918.167,VALID,0,VALID,92.9447,VALID,0,VALID,16.3541,VALID,137,VALID,0,
2012-07-25, 02:30:04,VALID,918.12,VALID,0,VALID,92.8685,VALID,0,VALID,16.3541,VALID,137,VALID,0,
2012-07-25, 02:31:04,VALID,918.143,VALID,0,VALID,92.6779,VALID,0,VALID,16.4126,VALID,137,VALID,0,
2012-07-25, 02:32:04,VALID,918.131,VALID,0,VALID,92.3882,VALID,0,VALID,16.4723,VALID,137,VALID,0,
2012-07-25, 02:33:04,VALID,918.116,VALID,0,VALID,92.3272,VALID,0,VALID,16.4515,VALID,137,VALID,0,
2012-07-25, 02:34:04,VALID,918.115,VALID,0,VALID,92.3806,VALID,0,VALID,16.471,VALID,137,VALID,0,
2012-07-25, 02:35:04,VALID,918.111,VALID,0,VALID,92.3577,VALID,0,VALID,16.4515,VALID,137,VALID,0,
2012-07-25, 02:36:04,VALID,918.097,VALID,0,VALID,92.1595,VALID,0,VALID,16.4515,VALID,137,VALID,0,
2012-07-25, 02:37:04,VALID,918.117,VALID,0,VALID,91.9841,VALID,0,VALID,16.4905,VALID,137,VALID,0,
2012-07-25, 02:38:04,VALID,918.128,VALID,0,VALID,91.9384,VALID,0,VALID,16.4515,VALID,137,VALID,0,
2012-07-25, 02:39:04,VALID,918.098,VALID,0,VALID,92.1061,VALID,0,VALID,16.4126,VALID,137,VALID,0,
2012-07-25, 02:40:04,VALID,918.12,VALID,0,VALID,92.1214,VALID,0,VALID,16.3736,VALID,137,VALID,0,
2012-07-25, 02:41:04,VALID,918.093,VALID,0,VALID,92.1519,VALID,0,VALID,16.3541,VALID,137,VALID,0,
2012-07-25, 02:42:04,VALID,918.089,VALID,0,VALID,91.9079,VALID,0,VALID,16.3931,VALID,137,VALID,0,
2012-07-25, 02:43:04,VALID,918.1,VALID,0,VALID,91.6487,VALID,0,VALID,16.4321,VALID,137,VALID,0,
2012-07-25, 02:44:04,VALID,918.068,VALID,0,VALID,91.4352,VALID,0,VALID,16.4515,VALID,137,VALID,0,
2012-07-25, 02:45:04,VALID,918.024,VALID,0,VALID,91.1608,VALID,0,VALID,16.4905,VALID,137,VALID,0,
2012-07-25, 02:46:04,VALID,918.018,VALID,0,VALID,91.0465,VALID,0,VALID,16.51,VALID,137,VALID,0,
2012-07-25, 02:47:04,VALID,917.984,VALID,0,VALID,90.833,VALID,0,VALID,16.5295,VALID,137,VALID,0,
2012-07-25, 02:48:04,VALID,917.994,VALID,0,VALID,90.5509,VALID,0,VALID,16.5685,VALID,137,VALID,0,
2012-07-25, 02:49:04,VALID,917.979,VALID,0,VALID,90.5052,VALID,0,VALID,16.5879,VALID,137,VALID,0,
2012-07-25, 02:50:04,VALID,917.98,VALID,0,VALID,90.6653,VALID,0,VALID,16.5892,VALID,137,VALID,0,
2012-07-25, 02:51:04,VALID,917.954,VALID,0,VALID,90.7263,VALID,0,VALID,16.5879,VALID,137,VALID,0,
2012-07-25, 02:52:04,VALID,917.943,VALID,0,VALID,90.955,VALID,0,VALID,16.5685,VALID,137,VALID,0,
2012-07-25, 02:53:04,VALID,917.939,VALID,0,VALID,91.1151,VALID,0,VALID,16.51,VALID,137,VALID,0,
2012-07-25, 02:54:04,VALID,917.93,VALID,0,VALID,91.2904,VALID,0,VALID,16.549,VALID,137,VALID,0,
2012-07-25, 02:55:04,VALID,917.902,VALID,0,VALID,91.2904,VALID,0,VALID,16.5502,VALID,137,VALID,0,
2012-07-25, 02:56:04,VALID,917.905,VALID,0,VALID,91.1151,VALID,0,VALID,16.5685,VALID,137,VALID,0,
2012-07-25, 02:57:04,VALID,917.897,VALID,0,VALID,90.772,VALID,0,VALID,16.6074,VALID,137,VALID,0,
2012-07-25, 02:58:04,VALID,917.909,VALID,0,VALID,90.2994,VALID,0,VALID,16.6257,VALID,137,VALID,0,
2012-07-25, 02:59:04,VALID,917.89,VALID,0,VALID,90.0249,VALID,0,VALID,16.6854,VALID,137,VALID,0,
2012-07-25, 03:00:04,VALID,917.853,VALID,0,VALID,88.7975,VALID,0,VALID,16.7828,VALID,137,VALID,0,
2012-07-25, 03:01:04,VALID,917.841,VALID,0,VALID,86.7926,VALID,0,VALID,16.9387,VALID,137,VALID,0,
2012-07-25, 03:02:04,VALID,917.831,VALID,0,VALID,84.5284,VALID,0,VALID,17.1323,VALID,118,VALID,0,
2012-07-25, 03:03:04,VALID,917.836,VALID,0,VALID,85.0011,VALID,0,VALID,17.2895,VALID,113,VALID,0,
2012-07-25, 03:04:04,VALID,917.81,VALID,0,VALID,85.0697,VALID,0,VALID,17.2506,VALID,130,VALID,0,
2012-07-25, 03:05:04,VALID,917.774,VALID,0,VALID,85.6872,VALID,0,VALID,17.1531,VALID,130,VALID,0,
2012-07-25, 03:06:04,VALID,917.802,VALID,0,VALID,86.2666,VALID,0,VALID,17.0946,VALID,130,VALID,0,
2012-07-25, 03:07:04,VALID,917.77,VALID,0,VALID,86.1522,VALID,0,VALID,17.0362,VALID,130,VALID,0,
2012-07-25, 03:08:04,VALID,917.774,VALID,0,VALID,86.5868,VALID,0,VALID,17.0167,VALID,127,VALID,0,
2012-07-25, 03:09:04,VALID,917.718,VALID,0,VALID,86.7926,VALID,0,VALID,16.9582,VALID,124,VALID,0,
2012-07-25, 03:10:04,VALID,917.701,VALID,0,VALID,87.0747,VALID,0,VALID,16.8997,VALID,124,VALID,0,
2012-07-25, 03:11:04,VALID,917.688,VALID,0,VALID,87.4939,VALID,0,VALID,16.84,VALID,131,VALID,0,
2012-07-25, 03:12:04,VALID,917.715,VALID,0,VALID,87.8141,VALID,0,VALID,16.8815,VALID,131,VALID,0,
2012-07-25, 03:13:04,VALID,917.688,VALID,0,VALID,87.8751,VALID,0.107441,VALID,16.8608,VALID,131,VALID,0,
2012-07-25, 03:14:04,VALID,917.664,VALID,0,VALID,88.0123,VALID,0,VALID,16.8608,VALID,131,VALID,0,
2012-07-25, 03:15:04,VALID,917.686,VALID,0,VALID,88.1038,VALID,0,VALID,16.8803,VALID,120,VALID,0,
2012-07-25, 03:16:04,VALID,917.65,VALID,0,VALID,88.2258,VALID,0,VALID,16.8608,VALID,116,VALID,0,
2012-07-25, 03:17:04,VALID,917.64,VALID,0,VALID,88.2258,VALID,0,VALID,16.8413,VALID,116,VALID,0,
2012-07-25, 03:18:04,VALID,917.628,VALID,0,VALID,88.3249,VALID,0,VALID,16.8595,VALID,116,VALID,0,
2012-07-25, 03:19:04,VALID,917.623,VALID,0,VALID,88.4392,VALID,0,VALID,16.8413,VALID,116,VALID,0,
2012-07-25, 03:20:04,VALID,917.634,VALID,0,VALID,88.241,VALID,0,VALID,16.8413,VALID,116,VALID,0,
2012-07-25, 03:21:05,VALID,917.586,VALID,0,VALID,88.4164,VALID,0,VALID,16.862,VALID,116,VALID,0,
2012-07-25, 03:22:05,VALID,917.596,VALID,0,VALID,88.5688,VALID,0,VALID,16.8023,VALID,116,VALID,0,
2012-07-25, 03:23:05,VALID,917.623,VALID,0,VALID,88.3401,VALID,0,VALID,16.8023,VALID,130,VALID,0,
2012-07-25, 03:24:05,VALID,917.638,VALID,0,VALID,88.1038,VALID,0,VALID,16.862,VALID,130,VALID,0,
2012-07-25, 03:25:05,VALID,917.603,VALID,0,VALID,87.9285,VALID,0,VALID,16.8608,VALID,130,VALID,0,
2012-07-25, 03:26:05,VALID,917.618,VALID,0,VALID,88.4011,VALID,0,VALID,16.8595,VALID,138,VALID,0,
2012-07-25, 03:27:05,VALID,917.633,VALID,0,VALID,89.1559,VALID,0,VALID,16.7828,VALID,138,VALID,0,
2012-07-25, 03:28:05,VALID,917.663,VALID,0,VALID,89.7276,VALID,0,VALID,16.6646,VALID,138,VALID,0,
2012-07-25, 03:29:05,VALID,917.654,VALID,0,VALID,89.8877,VALID,0,VALID,16.6464,VALID,138,VALID,0,
2012-07-25, 03:30:05,VALID,917.61,VALID,0,VALID,89.9792,VALID,0,VALID,16.6269,VALID,138,VALID,0,
2012-07-25, 03:31:05,VALID,917.609,VALID,0,VALID,90.0478,VALID,0,VALID,16.5867,VALID,138,VALID,0,
2012-07-25, 03:32:05,VALID,917.575,VALID,0,VALID,90.0707,VALID,0,VALID,16.5672,VALID,138,VALID,0,
2012-07-25, 03:33:05,VALID,917.593,VALID,0,VALID,89.6971,VALID,0,VALID,16.6269,VALID,122,VALID,0,
2012-07-25, 03:34:05,VALID,917.587,VALID,0,VALID,89.1254,VALID,0,VALID,16.7049,VALID,121,VALID,0,
2012-07-25, 03:35:05,VALID,917.577,VALID,0,VALID,88.9348,VALID,0,VALID,16.6841,VALID,109,VALID,0,
2012-07-25, 03:36:05,VALID,917.556,VALID,0,VALID,88.6984,VALID,0,VALID,16.6451,VALID,108,VALID,0,
2012-07-25, 03:37:05,VALID,917.581,VALID,0,VALID,87.2881,VALID,0,VALID,16.6646,VALID,108,VALID,0,
2012-07-25, 03:38:05,VALID,917.564,VALID,0,VALID,87.4253,VALID,0,VALID,16.8218,VALID,108,VALID,0,
2012-07-25, 03:39:05,VALID,917.576,VALID,0,VALID,87.654,VALID,0,VALID,16.8023,VALID,108,VALID,0,
2012-07-25, 03:40:05,VALID,917.52,VALID,0,VALID,87.9209,VALID,0,VALID,16.8023,VALID,108,VALID,0,
2012-07-25, 03:41:05,VALID,917.521,VALID,0,VALID,88.5155,VALID,0,VALID,16.7231,VALID,108,VALID,0,
2012-07-25, 03:42:05,VALID,917.47,VALID,0,VALID,88.9348,VALID,0,VALID,16.5685,VALID,108,VALID,0,
2012-07-25, 03:43:05,VALID,917.441,VALID,0,VALID,89.6209,VALID,0,VALID,16.4321,VALID,108,VALID,0,
2012-07-25, 03:44:05,VALID,917.44,VALID,0,VALID,89.3769,VALID,0,VALID,16.3151,VALID,108,VALID,0,
2012-07-25, 03:45:05,VALID,917.435,VALID,0,VALID,88.7594,VALID,0,VALID,16.3541,VALID,142,VALID,0,
2012-07-25, 03:46:05,VALID,917.397,VALID,0,VALID,89.255,VALID,0,VALID,16.4503,VALID,161,VALID,0,
2012-07-25, 03:47:05,VALID,917.39,VALID,0,VALID,90.307,VALID,0,VALID,16.4321,VALID,165,VALID,0,
2012-07-25, 03:48:05,VALID,917.39,VALID,0,VALID,89.598,VALID,0,VALID,16.4905,VALID,157,VALID,0,
2012-07-25, 03:49:05,VALID,917.392,VALID,0,VALID,88.1419,VALID,0,VALID,16.6062,VALID,143,VALID,0,
2012-07-25, 03:50:05,VALID,917.361,VALID,0,VALID,86.3885,VALID,0,VALID,16.8218,VALID,137,VALID,0,
2012-07-25, 03:51:05,VALID,917.377,VALID,0,VALID,86.1217,VALID,0,VALID,16.9387,VALID,136,VALID,0,
2012-07-25, 03:52:05,VALID,917.386,VALID,0,VALID,87.0823,VALID,0,VALID,16.8803,VALID,136,VALID,0,
2012-07-25, 03:53:05,VALID,917.381,VALID,0,VALID,87.8904,VALID,0,VALID,16.8023,VALID,136,VALID,0,
2012-07-25, 03:54:05,VALID,917.37,VALID,0,VALID,88.363,VALID,0,VALID,16.7049,VALID,136,VALID,0,
2012-07-25, 03:55:05,VALID,917.361,VALID,0,VALID,88.3325,VALID,0,VALID,16.5867,VALID,105,VALID,0,
2012-07-25, 03:56:05,VALID,917.31,VALID,0,VALID,88.1343,VALID,0,VALID,16.5477,VALID,64,VALID,0,
2012-07-25, 03:57:05,VALID,917.284,VALID,0,VALID,86.9374,VALID,0,VALID,16.471,VALID,69,VALID,0,
2012-07-25, 03:58:05,VALID,917.327,VALID,0,VALID,85.9921,VALID,0,VALID,16.5477,VALID,69,VALID,0,
2012-07-25, 03:59:05,VALID,917.338,VALID,0,VALID,85.0621,VALID,0,VALID,16.6062,VALID,70,VALID,0,